Weather History for Orlando, FL

Change the Weather History Date:

Tuesday, March 19, 2013

  Actual Average Record
Temperature  
Mean Temperature 75 °F -  
Max Temperature 87 °F 75 °F 88 °F (2003)
Min Temperature 64 °F 56 °F 43 °F (2005)
Cooling Degree Days 10    
Growing Degree Days 25 (Base 50)    
Moisture  
Dew Point 60 °F    
Average Humidity 68    
Maximum Humidity 94    
Minimum Humidity 33    
Precipitation  
Precipitation 0.00 in - - ()
Sea Level Pressure  
Sea Level Pressure 29.97 in    
Wind  
Wind Speed 5 mph (ENE)    
Max Wind Speed 12 mph    
Max Gust Speed -    
Visibility 10 miles    
Events      
Averages and records for this station are not official NWS values.
T = Trace of Precipitation, MM = Missing Value Source: NWS Daily Summary

Daily Weather History Graph

Daily Weather History Graph

Search for Another Location

Airport:

Trip Planner

Search our weather history database for the weather conditions in past years. The results will help you decide how hot, cold, wet, or windy it might be!

Date:

Astronomy

Mar. 19, 2013 Rise Set
Actual Time 7:30 AM EDT 7:36 PM EDT
Civil Twilight 7:06 AM EDT 7:59 PM EDT
Nautical Twilight 6:39 AM EDT 8:27 PM EDT
Astronomical Twilight 6:11 AM EDT 8:54 PM EDT
Moon 12:45 PM EDT (3/19) 1:55 AM EDT (3/19)
Length of Visible Light 12h 53m
Length of Day
12h 06m
Waxing Crescent, 49% of the Moon is Illuminated
Mar 19
Waxing Crescent
Mar 19
First Quarter
Mar 27
Full
Apr 3
Last Quarter
Apr 10
New

Hourly Weather History & Observations

Time (EDT) Temp. Heat Index Dew Point Humidity Pressure Visibility Wind Dir Wind Speed Gust Speed Precip Events Conditions
12:53 AM 69.1 °F - 64.0 °F 84% 29.95 in 10.0 mi SSW 8.1 mph - N/A   Clear
1:53 AM 68.0 °F - 64.0 °F 87% 29.94 in 10.0 mi Calm Calm - N/A   Clear
2:53 AM 68.0 °F - 64.0 °F 87% 29.97 in 10.0 mi NNW 3.5 mph - N/A   Clear
3:53 AM 66.0 °F - 63.0 °F 90% 29.96 in 10.0 mi Calm Calm - N/A   Clear
4:53 AM 66.0 °F - 63.0 °F 90% 29.96 in 10.0 mi NE 3.5 mph - N/A   Clear
5:53 AM 64.0 °F - 62.1 °F 93% 29.95 in 10.0 mi NE 4.6 mph - N/A   Clear
6:23 AM 64.4 °F - 62.6 °F 94% 29.96 in 9.0 mi Calm Calm - N/A   Mostly Cloudy
6:53 AM 64.9 °F - 63.0 °F 93% 29.97 in 10.0 mi ENE 8.1 mph - N/A   Overcast
7:05 AM 64.4 °F - 62.6 °F 94% 29.97 in 10.0 mi NE 6.9 mph - N/A   Overcast
7:32 AM 64.4 °F - 60.8 °F 88% 30.00 in 10.0 mi NE 4.6 mph - N/A   Overcast
7:53 AM 64.9 °F - 61.0 °F 87% 30.02 in 10.0 mi ENE 4.6 mph - N/A   Overcast
8:53 AM 64.9 °F - 61.0 °F 87% 30.01 in 10.0 mi SE 5.8 mph - N/A   Clear
9:53 AM 69.1 °F - 60.1 °F 73% 30.05 in 10.0 mi North 10.4 mph - N/A   Clear
10:53 AM 72.0 °F - 60.1 °F 66% 30.02 in 10.0 mi East 3.5 mph - N/A   Clear
11:53 AM 77.0 °F - 60.1 °F 56% 30.01 in 10.0 mi Calm Calm - N/A   Clear
12:53 PM 80.1 °F 80.6 °F 57.9 °F 47% 30.02 in 10.0 mi West 4.6 mph - N/A   Clear
1:53 PM 82.0 °F 82.0 °F 57.9 °F 44% 29.97 in 10.0 mi South 4.6 mph - N/A   Clear
2:53 PM 84.9 °F 83.7 °F 55.9 °F 37% 29.94 in 10.0 mi West 6.9 mph - N/A   Clear
3:53 PM 84.9 °F 83.3 °F 54.0 °F 34% 29.92 in 10.0 mi Calm Calm - N/A   Clear
4:53 PM 86.0 °F 84.5 °F 55.0 °F 35% 29.91 in 10.0 mi Calm Calm - N/A   Scattered Clouds
5:53 PM 86.0 °F 84.2 °F 54.0 °F 33% 29.91 in 10.0 mi Calm Calm - N/A   Scattered Clouds
6:53 PM 82.0 °F 81.6 °F 55.9 °F 41% 29.93 in 10.0 mi ENE 11.5 mph - N/A   Mostly Cloudy
7:53 PM 78.1 °F - 57.0 °F 48% 29.95 in 10.0 mi ENE 10.4 mph - N/A   Overcast
8:53 PM 75.0 °F - 57.0 °F 53% 29.97 in 10.0 mi NE 5.8 mph - N/A   Scattered Clouds
9:53 PM 73.0 °F - 59.0 °F 61% 29.98 in 10.0 mi East 9.2 mph - N/A   Mostly Cloudy
10:53 PM 72.0 °F - 60.1 °F 66% 29.98 in 10.0 mi ENE 8.1 mph - N/A   Overcast
11:53 PM 71.1 °F - 61.0 °F 70% 30.00 in 10.0 mi NE 5.8 mph - N/A   Mostly Cloudy